Location: Los Ranchitos
(37.9930°N, 122.5425°W)
Time: 03:23:22
(UTC+00:00)

Okean 2 - Pass Details

Date: 21 September 2020
Orbit: 559 x 577 km, 82.5° (Epoch: 27 October)

Event Time Altitude Azimuth Distance (km) Brightness Sun altitude
Rises 02:33:29 0° 355° (N) 2,797 7.1 -5.6°
Reaches altitude 10° 02:35:42 10° 359° (N) 1,892 6.2 -6.0°
Maximum altitude 02:39:51 67° 81° (E) 627 3.4 -6.9°
Drops below altitude 10° 02:43:57 10° 165° (SSE) 1,868 5.8 -7.7°
Sets 02:46:08 0° 168° (SSE) 2,758 6.7 -8.1°
